| time (UTC) | temp C | wind direction | speed KPH | gust KPH | rain 1hr cm | rain 24hr cm | rain mn cm | humidity % | barometer mb |
| 20260509054904 | 6 | 249 | 0.0 | 1.6 | 0.00 | 0.00 | 0.00 | 86 | 1010.7 |
| 20260509054401 | 7 | 249 | 0.0 | 0.0 | 0.00 | 0.00 | 0.00 | 86 | 1010.7 |
| 20260509053859 | 7 | 247 | 0.0 | 0.0 | 0.00 | 0.00 | 0.00 | 85 | 1010.7 |
| 20260509053356 | 7 | 246 | 0.0 | 0.0 | 0.00 | 0.00 | 0.00 | 85 | 1011.1 |
| 20260509052855 | 7 | 239 | 0.0 | 0.0 | 0.00 | 0.00 | 0.00 | 84 | 1011.1 |
| 20260509052352 | 7 | 239 | 0.0 | 0.0 | 0.00 | 0.00 | 0.00 | 85 | 1011.1 |
| 20260509051849 | 7 | 239 | 0.0 | 0.0 | 0.00 | 0.00 | 0.00 | 84 | 1011.1 |
| 20260509051347 | 6 | 245 | 0.0 | 0.0 | 0.00 | 0.00 | 0.00 | 83 | 1011.4 |
| 20260509050844 | 6 | 242 | 0.0 | 0.0 | 0.00 | 0.00 | 0.00 | 84 | 1011.1 |
| 20260509050341 | 6 | 246 | 0.0 | 0.0 | 0.00 | 0.00 | 0.00 | 85 | 1011.1 |
| 20260509045837 | 7 | 247 | 0.0 | 0.0 | 0.00 | 0.00 | 0.00 | 85 | 1011.4 |
| 20260509045334 | 7 | 264 | 0.0 | 1.6 | 0.00 | 0.00 | 0.00 | 84 | 1011.4 |
| 20260509044832 | 7 | 318 | 3.2 | 3.2 | 0.00 | 0.00 | 0.00 | 84 | 1011.4 |
| 20260509044329 | 7 | 245 | 0.0 | 0.0 | 0.00 | 0.00 | 0.00 | 84 | 1011.4 |
| 20260509043825 | 7 | 244 | 0.0 | 0.0 | 0.00 | 0.00 | 0.00 | 85 | 1011.4 |
| 20260509043321 | 7 | 245 | 0.0 | 0.0 | 0.00 | 0.00 | 0.00 | 85 | 1011.4 |
| 20260509042817 | 7 | 252 | 0.0 | 0.0 | 0.00 | 0.00 | 0.00 | 84 | 1011.1 |
| 20260509042314 | 7 | 249 | 0.0 | 0.0 | 0.00 | 0.00 | 0.00 | 82 | 1011.4 |
| 20260509041811 | 7 | 274 | 1.6 | 1.6 | 0.00 | 0.00 | 0.00 | 82 | 1011.4 |
| 20260509041308 | 7 | 254 | 0.0 | 0.0 | 0.00 | 0.00 | 0.00 | 83 | 1011.4 |
| 20260509040806 | 7 | 242 | 0.0 | 0.0 | 0.00 | 0.00 | 0.00 | 83 | 1011.8 |
| 20260509040303 | 7 | 238 | 0.0 | 1.6 | 0.00 | 0.00 | 0.00 | 84 | 1011.8 |
| 20260509035800 | 6 | 240 | 0.0 | 0.0 | 0.00 | 0.23 | 0.23 | 83 | 1011.4 |
| 20260509035257 | 6 | 248 | 0.0 | 0.0 | 0.00 | 0.23 | 0.23 | 83 | 1011.4 |
| 20260509034753 | 6 | 242 | 0.0 | 0.0 | 0.00 | 0.23 | 0.23 | 83 | 1011.4 |
| 20260509034251 | 6 | 240 | 0.0 | 0.0 | 0.00 | 0.23 | 0.23 | 83 | 1011.8 |
| 20260509033748 | 6 | 241 | 0.0 | 0.0 | 0.00 | 0.23 | 0.23 | 81 | 1011.4 |
| 20260509033245 | 6 | 241 | 0.0 | 0.0 | 0.00 | 0.23 | 0.23 | 81 | 1011.4 |
| 20260509032742 | 6 | 245 | 0.0 | 0.0 | 0.00 | 0.23 | 0.23 | 80 | 1011.4 |
| 20260509032239 | 6 | 237 | 0.0 | 0.0 | 0.00 | 0.23 | 0.23 | 81 | 1011.8 |
| 20260509031737 | 6 | 243 | 0.0 | 0.0 | 0.00 | 0.23 | 0.23 | 80 | 1011.4 |
| 20260509031234 | 7 | 243 | 0.0 | 0.0 | 0.00 | 0.23 | 0.23 | 78 | 1011.8 |
| 20260509030732 | 7 | 241 | 0.0 | 0.0 | 0.00 | 0.23 | 0.23 | 77 | 1011.4 |
| 20260509030229 | 7 | 246 | 0.0 | 0.0 | 0.00 | 0.23 | 0.23 | 77 | 1011.4 |
| 20260509025726 | 7 | 240 | 0.0 | 0.0 | 0.00 | 0.23 | 0.23 | 77 | 1011.4 |
| 20260509025221 | 7 | 243 | 0.0 | 0.0 | 0.00 | 0.23 | 0.23 | 78 | 1011.4 |
| 20260509024717 | 7 | 240 | 0.0 | 0.0 | 0.00 | 0.23 | 0.23 | 78 | 1011.8 |
| 20260509024213 | 7 | 250 | 0.0 | 0.0 | 0.00 | 0.23 | 0.23 | 77 | 1011.4 |
| 20260509023711 | 7 | 237 | 0.0 | 0.0 | 0.00 | 0.23 | 0.23 | 76 | 1011.8 |
| 20260509023208 | 8 | 246 | 0.0 | 0.0 | 0.00 | 0.23 | 0.23 | 77 | 1011.4 |
| 20260509022703 | 8 | 253 | 0.0 | 0.0 | 0.00 | 0.23 | 0.23 | 77 | 1011.8 |
| 20260509022202 | 8 | 247 | 0.0 | 0.0 | 0.00 | 0.23 | 0.23 | 76 | 1011.4 |
| 20260509021658 | 8 | 245 | 0.0 | 0.0 | 0.00 | 0.23 | 0.23 | 76 | 1011.4 |
| 20260509021156 | 8 | 245 | 0.0 | 0.0 | 0.00 | 0.23 | 0.23 | 75 | 1011.8 |
| 20260509020654 | 8 | 241 | 0.0 | 0.0 | 0.00 | 0.23 | 0.23 | 74 | 1011.8 |
| 20260509020150 | 8 | 249 | 0.0 | 0.0 | 0.00 | 0.23 | 0.23 | 73 | 1011.8 |
| 20260509015649 | 8 | 252 | 0.0 | 0.0 | 0.00 | 0.23 | 0.23 | 74 | 1011.4 |
| 20260509015146 | 8 | 249 | 0.0 | 0.0 | 0.00 | 0.23 | 0.23 | 73 | 1011.8 |
| 20260509014643 | 9 | 238 | 0.0 | 0.0 | 0.00 | 0.23 | 0.23 | 73 | 1011.4 |
| 20260509014139 | 9 | 238 | 0.0 | 0.0 | 0.00 | 0.23 | 0.23 | 72 | 1011.8 |
| 20260509013636 | 9 | 242 | 0.0 | 0.0 | 0.00 | 0.23 | 0.23 | 70 | 1011.4 |
| 20260509013132 | 9 | 242 | 0.0 | 0.0 | 0.00 | 0.23 | 0.23 | 72 | 1011.4 |
| 20260509012628 | 9 | 246 | 0.0 | 0.0 | 0.00 | 0.23 | 0.23 | 70 | 1011.1 |
| 20260509012126 | 9 | 253 | 0.0 | 0.0 | 0.00 | 0.23 | 0.23 | 71 | 1011.1 |
| 20260509011624 | 9 | 245 | 0.0 | 0.0 | 0.00 | 0.23 | 0.23 | 67 | 1011.4 |
| 20260509011121 | 10 | 245 | 0.0 | 0.0 | 0.00 | 0.23 | 0.23 | 66 | 1011.1 |
| 20260509010618 | 10 | 241 | 0.0 | 0.0 | 0.00 | 0.23 | 0.23 | 66 | 1011.1 |
| 20260509010114 | 10 | 239 | 0.0 | 0.0 | 0.00 | 0.23 | 0.23 | 65 | 1011.1 |
| 20260509005612 | 10 | 243 | 0.0 | 0.0 | 0.00 | 0.23 | 0.23 | 65 | 1010.7 |
| 20260509005108 | 10 | 251 | 0.0 | 0.0 | 0.00 | 0.23 | 0.23 | 65 | 1011.1 |
| 20260509004604 | 10 | 252 | 0.0 | 0.0 | 0.00 | 0.23 | 0.23 | 67 | 1010.7 |
| 20260509004101 | 10 | 250 | 0.0 | 0.0 | 0.00 | 0.23 | 0.23 | 66 | 1010.4 |
| 20260509003600 | 10 | 252 | 0.0 | 0.0 | 0.00 | 0.23 | 0.23 | 64 | 1010.7 |
| 20260509003057 | 10 | 240 | 0.0 | 0.0 | 0.00 | 0.23 | 0.23 | 62 | 1010.4 |
| 20260509002554 | 10 | 252 | 0.0 | 0.0 | 0.00 | 0.23 | 0.23 | 63 | 1010.4 |
| 20260509002051 | 11 | 253 | 0.0 | 0.0 | 0.00 | 0.23 | 0.23 | 63 | 1010.4 |
| 20260509001549 | 11 | 250 | 0.0 | 0.0 | 0.00 | 0.23 | 0.23 | 59 | 1010.4 |
| 20260509001044 | 12 | 249 | 0.0 | 0.0 | 0.00 | 0.23 | 0.23 | 50 | 1010.4 |
| 20260509000543 | 12 | 246 | 0.0 | 0.0 | 0.00 | 0.23 | 0.23 | 50 | 1010.4 |
| 20260509000038 | 12 | 294 | 1.6 | 1.6 | 0.00 | 0.23 | 0.23 | 49 | 1010.4 |
| 20260508235537 | 12 | 252 | 0.0 | 1.6 | 0.00 | 0.23 | 0.23 | 50 | 1010.1 |
| 20260508235032 | 12 | 317 | 4.8 | 4.8 | 0.00 | 0.23 | 0.23 | 48 | 1010.1 |
| 20260508234530 | 12 | 355 | 8.0 | 9.7 | 0.00 | 0.23 | 0.23 | 47 | 1010.1 |
| 20260508234026 | 12 | 345 | 8.0 | 12.9 | 0.00 | 0.23 | 0.23 | 47 | 1010.1 |
| 20260508233521 | 12 | 289 | 3.2 | 3.2 | 0.00 | 0.23 | 0.23 | 49 | 1010.1 |
| 20260508233017 | 13 | 251 | 4.8 | 4.8 | 0.00 | 0.23 | 0.23 | 47 | 1010.1 |
| 20260508232514 | 13 | 270 | 1.6 | 3.2 | 0.00 | 0.23 | 0.23 | 48 | 1009.7 |
| 20260508232011 | 13 | 259 | 1.6 | 1.6 | 0.00 | 0.23 | 0.23 | 46 | 1009.7 |
| 20260508231509 | 14 | 328 | 4.8 | 4.8 | 0.00 | 0.23 | 0.23 | 46 | 1009.7 |
| 20260508231006 | 13 | 283 | 3.2 | 3.2 | 0.00 | 0.23 | 0.23 | 45 | 1009.7 |
| 20260508230503 | 14 | 295 | 3.2 | 3.2 | 0.00 | 0.23 | 0.23 | 46 | 1009.7 |
| 20260508225959 | 14 | 257 | 0.0 | 1.6 | 0.00 | 0.23 | 0.23 | 45 | 1010.1 |
| 20260508225456 | 13 | 255 | 3.2 | 3.2 | 0.00 | 0.23 | 0.23 | 45 | 1009.7 |
| 20260508224953 | 13 | 243 | 0.0 | 0.0 | 0.00 | 0.23 | 0.23 | 48 | 1009.7 |
| 20260508224450 | 13 | 337 | 8.0 | 9.7 | 0.00 | 0.23 | 0.23 | 45 | 1010.1 |
| 20260508223948 | 13 | 249 | 1.6 | 3.2 | 0.00 | 0.23 | 0.23 | 45 | 1009.7 |
| 20260508223446 | 13 | 322 | 4.8 | 4.8 | 0.00 | 0.23 | 0.23 | 45 | 1010.1 |
| 20260508222943 | 13 | 312 | 6.4 | 8.0 | 0.00 | 0.23 | 0.23 | 45 | 1009.7 |
| 20260508222440 | 13 | 324 | 6.4 | 8.0 | 0.00 | 0.23 | 0.23 | 45 | 1009.7 |
| 20260508221936 | 13 | 246 | 0.0 | 0.0 | 0.00 | 0.23 | 0.23 | 48 | 1009.7 |
| 20260508221433 | 13 | 256 | 3.2 | 3.2 | 0.00 | 0.23 | 0.23 | 46 | 1009.7 |
| 20260508220929 | 13 | 353 | 4.8 | 4.8 | 0.00 | 0.23 | 0.23 | 46 | 1009.7 |
| 20260508220425 | 14 | 5 | 4.8 | 4.8 | 0.00 | 0.23 | 0.23 | 47 | 1010.1 |
| 20260508215922 | 13 | 268 | 1.6 | 1.6 | 0.00 | 0.23 | 0.23 | 45 | 1009.7 |
| 20260508215419 | 13 | 305 | 3.2 | 4.8 | 0.00 | 0.23 | 0.23 | 47 | 1010.1 |
| 20260508214915 | 13 | 329 | 3.2 | 4.8 | 0.00 | 0.23 | 0.23 | 46 | 1010.1 |
| 20260508214413 | 14 | 306 | 3.2 | 3.2 | 0.00 | 0.23 | 0.23 | 47 | 1009.7 |
| 20260508213909 | 14 | 289 | 4.8 | 4.8 | 0.00 | 0.23 | 0.23 | 45 | 1010.1 |
| 20260508213407 | 15 | 320 | 4.8 | 4.8 | 0.00 | 0.23 | 0.23 | 45 | 1010.1 |
| 20260508212902 | 15 | 264 | 3.2 | 3.2 | 0.00 | 0.23 | 0.23 | 46 | 1010.1 |
| 20260508212359 | 13 | 266 | 1.6 | 3.2 | 0.00 | 0.23 | 0.23 | 49 | 1010.1 |
| 20260508211855 | 13 | 329 | 4.8 | 4.8 | 0.00 | 0.23 | 0.23 | 47 | 1010.1 |
| 20260508211350 | 13 | 287 | 1.6 | 3.2 | 0.00 | 0.23 | 0.23 | 47 | 1010.1 |
| 20260508210848 | 13 | 259 | 3.2 | 3.2 | 0.00 | 0.23 | 0.23 | 47 | 1010.1 |
| 20260508210344 | 13 | 224 | 3.2 | 3.2 | 0.00 | 0.23 | 0.23 | 47 | 1010.1 |
| 20260508205841 | 15 | 255 | 3.2 | 3.2 | 0.00 | 0.23 | 0.23 | 45 | 1010.1 |
| 20260508205338 | 13 | 239 | 1.6 | 1.6 | 0.00 | 0.23 | 0.23 | 47 | 1010.1 |
| 20260508204834 | 15 | 239 | 3.2 | 3.2 | 0.00 | 0.23 | 0.23 | 46 | 1010.1 |
| 20260508204331 | 14 | 338 | 6.4 | 9.7 | 0.00 | 0.23 | 0.23 | 49 | 1010.1 |
| 20260508203827 | 14 | 252 | 0.0 | 0.0 | 0.00 | 0.23 | 0.23 | 51 | 1010.1 |
| 20260508203323 | 13 | 237 | 1.6 | 3.2 | 0.00 | 0.23 | 0.23 | 49 | 1010.1 |
| 20260508202813 | 13 | 287 | 1.6 | 1.6 | 0.00 | 0.23 | 0.23 | 50 | 1010.1 |
| 20260508202311 | 14 | 279 | 1.6 | 1.6 | 0.00 | 0.23 | 0.23 | 49 | 1010.4 |
| 20260508201808 | 15 | 251 | 1.6 | 1.6 | 0.00 | 0.23 | 0.23 | 47 | 1010.4 |
| 20260508201305 | 15 | 350 | 1.6 | 3.2 | 0.00 | 0.23 | 0.23 | 48 | 1010.4 |
| 20260508200801 | 15 | 280 | 3.2 | 4.8 | 0.00 | 0.23 | 0.23 | 49 | 1010.4 |
| 20260508200258 | 14 | 263 | 1.6 | 1.6 | 0.00 | 0.23 | 0.23 | 49 | 1010.7 |
| 20260508195754 | 13 | 293 | 3.2 | 3.2 | 0.00 | 0.23 | 0.23 | 50 | 1010.7 |
| 20260508195250 | 13 | 268 | 3.2 | 3.2 | 0.00 | 0.23 | 0.23 | 49 | 1010.7 |
| 20260508194747 | 13 | 266 | 4.8 | 8.0 | 0.00 | 0.23 | 0.23 | 51 | 1010.7 |
| 20260508194244 | 15 | 258 | 1.6 | 1.6 | 0.00 | 0.23 | 0.23 | 48 | 1010.7 |
| 20260508193741 | 13 | 204 | 0.0 | 1.6 | 0.00 | 0.23 | 0.23 | 52 | 1010.7 |
| 20260508193238 | 13 | 237 | 1.6 | 1.6 | 0.00 | 0.23 | 0.23 | 52 | 1010.7 |
| 20260508192734 | 13 | 234 | 1.6 | 3.2 | 0.00 | 0.23 | 0.23 | 51 | 1011.1 |
| 20260508192231 | 12 | 257 | 6.4 | 8.0 | 0.00 | 0.23 | 0.23 | 51 | 1011.1 |
| 20260508191729 | 13 | 238 | 4.8 | 4.8 | 0.00 | 0.23 | 0.23 | 53 | 1011.4 |
| 20260508191225 | 12 | 259 | 1.6 | 1.6 | 0.00 | 0.23 | 0.23 | 53 | 1011.1 |
| 20260508190723 | 12 | 243 | 3.2 | 3.2 | 0.00 | 0.23 | 0.23 | 54 | 1011.4 |
| 20260508190218 | 13 | 251 | 4.8 | 8.0 | 0.00 | 0.23 | 0.23 | 51 | 1011.4 |
| 20260508185715 | 13 | 356 | 3.2 | 4.8 | 0.00 | 0.23 | 0.23 | 53 | 1011.1 |
| 20260508185213 | 13 | 317 | 1.6 | 3.2 | 0.00 | 0.23 | 0.23 | 53 | 1011.1 |
| 20260508184710 | 12 | 281 | 0.0 | 1.6 | 0.00 | 0.23 | 0.23 | 57 | 1011.1 |
| 20260508184207 | 11 | 263 | 1.6 | 3.2 | 0.00 | 0.23 | 0.23 | 58 | 1011.8 |
| 20260508183703 | 12 | 312 | 4.8 | 4.8 | 0.00 | 0.23 | 0.23 | 55 | 1011.4 |
| 20260508183200 | 12 | 248 | 1.6 | 3.2 | 0.00 | 0.23 | 0.23 | 56 | 1011.1 |
| 20260508182656 | 12 | 247 | 1.6 | 1.6 | 0.00 | 0.23 | 0.23 | 56 | 1011.4 |
| 20260508182153 | 12 | 318 | 4.8 | 4.8 | 0.00 | 0.23 | 0.23 | 56 | 1011.4 |
| 20260508181649 | 13 | 250 | 0.0 | 1.6 | 0.00 | 0.23 | 0.23 | 55 | 1011.8 |
| 20260508181146 | 12 | 200 | 1.6 | 1.6 | 0.00 | 0.23 | 0.23 | 57 | 1011.4 |
| 20260508180642 | 14 | 250 | 4.8 | 8.0 | 0.00 | 0.23 | 0.23 | 51 | 1011.8 |
| 20260508180139 | 13 | 290 | 6.4 | 11.3 | 0.00 | 0.23 | 0.23 | 57 | 1011.8 |
| 20260508175636 | 12 | 5 | 4.8 | 9.7 | 0.00 | 0.23 | 0.23 | 64 | 1011.8 |
| 20260508175132 | 12 | 293 | 3.2 | 3.2 | 0.00 | 0.23 | 0.23 | 62 | 1011.8 |
| 20260508174630 | 11 | 9 | 3.2 | 3.2 | 0.00 | 0.23 | 0.23 | 67 | 1011.8 |
| 20260508174127 | 10 | 332 | 6.4 | 8.0 | 0.00 | 0.23 | 0.23 | 64 | 1012.1 |
| 20260508173624 | 10 | 270 | 4.8 | 4.8 | 0.00 | 0.23 | 0.23 | 67 | 1012.1 |
| 20260508173120 | 11 | 261 | 1.6 | 1.6 | 0.00 | 0.23 | 0.23 | 64 | 1012.1 |
| 20260508172617 | 11 | 320 | 6.4 | 11.3 | 0.00 | 0.23 | 0.23 | 65 | 1012.5 |
| 20260508172114 | 11 | 269 | 3.2 | 3.2 | 0.00 | 0.23 | 0.23 | 67 | 1012.1 |
| 20260508171610 | 10 | 225 | 1.6 | 1.6 | 0.00 | 0.23 | 0.23 | 72 | 1012.5 |
| 20260508171107 | 10 | 244 | 1.6 | 1.6 | 0.00 | 0.23 | 0.23 | 70 | 1012.5 |
| 20260508170604 | 8 | 330 | 3.2 | 3.2 | 0.00 | 0.23 | 0.23 | 73 | 1012.9 |
| 20260508165558 | 9 | 336 | 8.0 | 11.3 | 0.00 | 0.23 | 0.23 | 73 | 1012.9 |
| 20260508165055 | 9 | 249 | 0.0 | 0.0 | 0.00 | 0.23 | 0.23 | 73 | 1012.9 |
| 20260508164551 | 10 | 238 | 1.6 | 1.6 | 0.00 | 0.23 | 0.23 | 72 | 1012.5 |
| 20260508164048 | 10 | 304 | 3.2 | 3.2 | 0.00 | 0.23 | 0.23 | 72 | 1012.9 |
| 20260508163546 | 10 | 327 | 3.2 | 3.2 | 0.00 | 0.23 | 0.23 | 72 | 1012.9 |
| 20260508163042 | 10 | 245 | 0.0 | 0.0 | 0.00 | 0.23 | 0.23 | 75 | 1013.2 |
| 20260508162539 | 8 | 246 | 0.0 | 1.6 | 0.00 | 0.23 | 0.23 | 77 | 1013.2 |
| 20260508162037 | 8 | 192 | 4.8 | 4.8 | 0.00 | 0.23 | 0.23 | 76 | 1013.2 |
| 20260508161533 | 9 | 238 | 4.8 | 4.8 | 0.00 | 0.23 | 0.23 | 77 | 1013.2 |
| 20260508161030 | 8 | 222 | 3.2 | 3.2 | 0.00 | 0.23 | 0.23 | 75 | 1013.6 |
| 20260508160529 | 8 | 228 | 1.6 | 1.6 | 0.00 | 0.23 | 0.23 | 79 | 1013.2 |
| 20260508160026 | 8 | 250 | 1.6 | 1.6 | 0.00 | 0.23 | 0.23 | 81 | 1013.6 |
| 20260508155523 | 8 | 176 | 6.4 | 8.0 | 0.00 | 0.23 | 0.23 | 82 | 1013.6 |
| 20260508155020 | 7 | 225 | 3.2 | 3.2 | 0.00 | 0.23 | 0.23 | 83 | 1013.6 |
| 20260508154517 | 6 | 245 | 0.0 | 1.6 | 0.00 | 0.23 | 0.23 | 86 | 1013.9 |
| 20260508154014 | 7 | 241 | 1.6 | 3.2 | 0.00 | 0.23 | 0.23 | 84 | 1013.6 |
| 20260508153510 | 6 | 240 | 0.0 | 0.0 | 0.00 | 0.23 | 0.23 | 86 | 1013.6 |
| 20260508153007 | 6 | 31 | 3.2 | 3.2 | 0.00 | 0.23 | 0.23 | 84 | 1013.6 |
| 20260508152504 | 6 | 233 | 1.6 | 1.6 | 0.00 | 0.23 | 0.23 | 85 | 1013.6 |
| 20260508151959 | 7 | 248 | 1.6 | 3.2 | 0.00 | 0.23 | 0.23 | 85 | 1013.6 |
| 20260508151456 | 6 | 249 | 0.0 | 1.6 | 0.00 | 0.23 | 0.23 | 86 | 1013.2 |
| 20260508150953 | 6 | 198 | 0.0 | 1.6 | 0.00 | 0.23 | 0.23 | 85 | 1013.6 |
| 20260508150450 | 5 | 235 | 0.0 | 1.6 | 0.00 | 0.23 | 0.23 | 87 | 1013.2 |
| 20260508145945 | 5 | 250 | 1.6 | 1.6 | 0.00 | 0.23 | 0.23 | 86 | 1013.2 |
| 20260508145442 | 5 | 232 | 0.0 | 0.0 | 0.00 | 0.23 | 0.23 | 88 | 1013.2 |
| 20260508144939 | 5 | 210 | 1.6 | 1.6 | 0.00 | 0.23 | 0.23 | 90 | 1013.2 |
| 20260508144437 | 5 | 218 | 3.2 | 3.2 | 0.00 | 0.23 | 0.23 | 92 | 1013.6 |
| 20260508143934 | 4 | 238 | 1.6 | 3.2 | 0.00 | 0.23 | 0.23 | 95 | 1013.2 |
| 20260508143431 | 3 | 259 | 0.0 | 0.0 | 0.00 | 0.23 | 0.23 | 95 | 1013.6 |
| 20260508142927 | 3 | 226 | 1.6 | 1.6 | 0.00 | 0.23 | 0.23 | 96 | 1013.6 |
| 20260508142425 | 3 | 224 | 3.2 | 3.2 | 0.00 | 0.23 | 0.23 | 96 | 1013.2 |
| 20260508141921 | 3 | 245 | 1.6 | 1.6 | 0.00 | 0.23 | 0.23 | 97 | 1013.2 |
| 20260508141418 | 3 | 233 | 0.0 | 1.6 | 0.00 | 0.23 | 0.23 | 98 | 1013.2 |
| 20260508140915 | 3 | 247 | 1.6 | 1.6 | 0.00 | 0.23 | 0.23 | 98 | 1013.6 |
| 20260508140412 | 3 | 244 | 0.0 | 1.6 | 0.00 | 0.23 | 0.23 | 98 | 1013.6 |
| 20260508135908 | 3 | 251 | 0.0 | 1.6 | 0.00 | 0.23 | 0.23 | 98 | 1013.6 |
| 20260508135405 | 3 | 250 | 0.0 | 0.0 | 0.00 | 0.23 | 0.23 | 98 | 1013.6 |
| 20260508134901 | 3 | 246 | 0.0 | 0.0 | 0.00 | 0.23 | 0.23 | 98 | 1013.6 |
| 20260508134358 | 3 | 248 | 1.6 | 3.2 | 0.00 | 0.23 | 0.23 | 98 | 1013.2 |
| 20260508133854 | 3 | 243 | 0.0 | 0.0 | 0.00 | 0.23 | 0.23 | 98 | 1013.2 |
| 20260508133352 | 3 | 303 | 3.2 | 3.2 | 0.00 | 0.23 | 0.23 | 98 | 1013.2 |
| 20260508132849 | 3 | 1 | 4.8 | 4.8 | 0.00 | 0.23 | 0.23 | 98 | 1013.2 |
| 20260508132347 | 3 | 308 | 8.0 | 9.7 | 0.00 | 0.23 | 0.23 | 98 | 1013.2 |
| 20260508131843 | 3 | 343 | 4.8 | 4.8 | 0.00 | 0.23 | 0.23 | 98 | 1013.2 |
| 20260508131339 | 3 | 243 | 4.8 | 4.8 | 0.00 | 0.23 | 0.23 | 97 | 1013.6 |
| 20260508130836 | 3 | 256 | 1.6 | 3.2 | 0.00 | 0.23 | 0.23 | 97 | 1012.9 |
| 20260508130333 | 3 | 248 | 0.0 | 0.0 | 0.00 | 0.23 | 0.23 | 97 | 1012.9 |
| 20260508125829 | 3 | 254 | 0.0 | 1.6 | 0.00 | 0.23 | 0.23 | 98 | 1012.9 |
| 20260508125325 | 3 | 305 | 1.6 | 1.6 | 0.00 | 0.23 | 0.23 | 97 | 1012.9 |
| 20260508124823 | 3 | 243 | 1.6 | 1.6 | 0.00 | 0.23 | 0.23 | 98 | 1012.9 |
| 20260508124320 | 3 | 237 | 0.0 | 0.0 | 0.00 | 0.23 | 0.23 | 98 | 1012.5 |
| 20260508123818 | 3 | 247 | 3.2 | 3.2 | 0.00 | 0.23 | 0.23 | 99 | 1012.9 |
| 20260508123316 | 3 | 277 | 3.2 | 3.2 | 0.18 | 0.23 | 0.23 | 99 | 1012.9 |
| 20260508122812 | 2 | 229 | 1.6 | 1.6 | 0.18 | 0.23 | 0.23 | 99 | 1012.9 |
| 20260508122309 | 2 | 292 | 0.0 | 0.0 | 0.13 | 0.20 | 0.20 | 98 | 1012.9 |
| 20260508121806 | 2 | 258 | 1.6 | 3.2 | 0.30 | 0.20 | 0.20 | 98 | 1012.9 |
| 20260508121305 | 2 | 271 | 3.2 | 3.2 | 0.18 | 0.18 | 0.18 | 98 | 1012.9 |
| 20260508120802 | 3 | 251 | 0.0 | 0.0 | 0.18 | 0.15 | 0.15 | 98 | 1012.9 |
| 20260508120300 | 3 | 254 | 0.0 | 1.6 | 0.18 | 0.15 | 0.15 | 98 | 1012.5 |
| 20260508115757 | 3 | 267 | 0.0 | 1.6 | 0.13 | 0.13 | 0.13 | 97 | 1012.9 |
| 20260508115254 | 3 | 257 | 1.6 | 1.6 | 0.30 | 0.13 | 0.13 | 97 | 1012.5 |
| 20260508114750 | 3 | 254 | 0.0 | 0.0 | 0.30 | 0.10 | 0.10 | 97 | 1012.5 |
| 20260508114247 | 3 | 257 | 0.0 | 0.0 | 0.30 | 0.08 | 0.08 | 96 | 1012.5 |
| 20260508113744 | 3 | 237 | 0.0 | 0.0 | 0.30 | 0.05 | 0.05 | 95 | 1012.5 |
| 20260508113243 | 3 | 224 | 1.6 | 1.6 | 0.13 | 0.03 | 0.03 | 94 | 1012.1 |
| 20260508112739 | 3 | 224 | 0.0 | 1.6 | 0.00 | 0.00 | 0.00 | 94 | 1012.1 |
| 20260508112235 | 3 | 240 | 0.0 | 0.0 | 0.00 | 0.00 | 0.00 | 94 | 1011.8 |
| 20260508111732 | 3 | 241 | 3.2 | 3.2 | 0.00 | 0.00 | 0.00 | 95 | 1011.8 |
| 20260508111230 | 3 | 260 | 1.6 | 1.6 | 0.00 | 0.00 | 0.00 | 96 | 1011.8 |
| 20260508110726 | 3 | 229 | 1.6 | 1.6 | 0.00 | 0.00 | 0.00 | 97 | 1011.8 |
| 20260508110223 | 2 | 234 | 1.6 | 1.6 | 0.00 | 0.00 | 0.00 | 97 | 1011.4 |
| 20260508105718 | 2 | 240 | 0.0 | 0.0 | 0.00 | 0.00 | 0.00 | 98 | 1011.4 |
| 20260508105215 | 2 | 245 | 0.0 | 0.0 | 0.00 | 0.00 | 0.00 | 98 | 1011.4 |
| 20260508104713 | 2 | 251 | 0.0 | 0.0 | 0.00 | 0.00 | 0.00 | 97 | 1011.4 |
| 20260508104209 | 2 | 246 | 0.0 | 0.0 | 0.00 | 0.00 | 0.00 | 97 | 1011.4 |
| 20260508103707 | 2 | 240 | 0.0 | 0.0 | 0.00 | 0.00 | 0.00 | 97 | 1011.4 |
| 20260508103204 | 2 | 240 | 0.0 | 0.0 | 0.00 | 0.00 | 0.00 | 97 | 1011.1 |
| 20260508102701 | 2 | 237 | 0.0 | 0.0 | 0.00 | 0.00 | 0.00 | 97 | 1011.4 |
| 20260508102159 | 2 | 242 | 0.0 | 0.0 | 0.00 | 0.00 | 0.00 | 96 | 1011.4 |
| 20260508101655 | 2 | 249 | 0.0 | 0.0 | 0.00 | 0.00 | 0.00 | 96 | 1011.8 |
| 20260508101153 | 2 | 239 | 0.0 | 0.0 | 0.00 | 0.00 | 0.00 | 96 | 1011.1 |
| 20260508100650 | 2 | 237 | 0.0 | 0.0 | 0.00 | 0.00 | 0.00 | 96 | 1011.8 |
| 20260508100148 | 2 | 242 | 0.0 | 0.0 | 0.00 | 0.00 | 0.00 | 95 | 1011.4 |
| 20260508095645 | 2 | 247 | 0.0 | 0.0 | 0.00 | 0.00 | 0.00 | 95 | 1011.8 |
| 20260508095142 | 2 | 245 | 0.0 | 0.0 | 0.00 | 0.00 | 0.00 | 95 | 1011.8 |
| 20260508094638 | 2 | 255 | 0.0 | 0.0 | 0.00 | 0.00 | 0.00 | 95 | 1011.8 |
| 20260508094135 | 2 | 255 | 0.0 | 1.6 | 0.00 | 0.00 | 0.00 | 95 | 1012.1 |
| 20260508093633 | 2 | 321 | 3.2 | 3.2 | 0.00 | 0.00 | 0.00 | 95 | 1012.1 |
| 20260508093130 | 2 | 255 | 0.0 | 0.0 | 0.00 | 0.00 | 0.00 | 95 | 1011.8 |
| 20260508092627 | 2 | 329 | 3.2 | 3.2 | 0.00 | 0.00 | 0.00 | 95 | 1012.1 |
| 20260508092126 | 2 | 283 | 1.6 | 1.6 | 0.00 | 0.00 | 0.00 | 95 | 1011.8 |
| 20260508091623 | 2 | 277 | 1.6 | 1.6 | 0.00 | 0.00 | 0.00 | 95 | 1012.1 |
| 20260508091120 | 2 | 247 | 0.0 | 0.0 | 0.00 | 0.00 | 0.00 | 95 | 1012.1 |
| 20260508090618 | 2 | 315 | 3.2 | 3.2 | 0.00 | 0.00 | 0.00 | 95 | 1011.8 |
| 20260508090115 | 2 | 248 | 0.0 | 0.0 | 0.00 | 0.00 | 0.00 | 96 | 1012.1 |
| 20260508085611 | 2 | 256 | 0.0 | 1.6 | 0.00 | 0.00 | 0.00 | 96 | 1012.1 |
| 20260508085108 | 2 | 297 | 3.2 | 3.2 | 0.00 | 0.00 | 0.00 | 96 | 1012.1 |
| 20260508084604 | 2 | 301 | 1.6 | 3.2 | 0.00 | 0.00 | 0.00 | 96 | 1012.1 |
| 20260508084102 | 2 | 247 | 0.0 | 0.0 | 0.00 | 0.00 | 0.00 | 96 | 1012.1 |
| 20260508083559 | 2 | 248 | 0.0 | 0.0 | 0.00 | 0.00 | 0.00 | 96 | 1011.8 |
| 20260508083056 | 2 | 244 | 0.0 | 0.0 | 0.00 | 0.00 | 0.00 | 96 | 1012.1 |
| 20260508082552 | 2 | 249 | 0.0 | 0.0 | 0.00 | 0.00 | 0.00 | 97 | 1012.5 |
| 20260508082049 | 2 | 249 | 0.0 | 0.0 | 0.00 | 0.00 | 0.00 | 97 | 1012.1 |
| 20260508081547 | 2 | 234 | 0.0 | 1.6 | 0.00 | 0.00 | 0.00 | 97 | 1011.8 |
| 20260508081042 | 1 | 249 | 0.0 | 0.0 | 0.00 | 0.00 | 0.00 | 96 | 1011.8 |
| 20260508080541 | 1 | 243 | 0.0 | 0.0 | 0.00 | 0.00 | 0.00 | 96 | 1011.8 |
| 20260508080038 | 1 | 239 | 0.0 | 0.0 | 0.00 | 0.00 | 0.00 | 96 | 1011.8 |
| 20260508075534 | 1 | 254 | 0.0 | 0.0 | 0.00 | 0.00 | 0.00 | 96 | 1011.8 |
| 20260508075032 | 1 | 248 | 0.0 | 0.0 | 0.00 | 0.00 | 0.00 | 95 | 1011.8 |
| 20260508074529 | 1 | 240 | 0.0 | 0.0 | 0.00 | 0.00 | 0.00 | 95 | 1011.8 |
| 20260508074026 | 1 | 242 | 0.0 | 0.0 | 0.00 | 0.00 | 0.00 | 95 | 1011.8 |
| 20260508073523 | 1 | 236 | 0.0 | 0.0 | 0.00 | 0.00 | 0.00 | 95 | 1011.8 |
| 20260508073021 | 2 | 249 | 0.0 | 0.0 | 0.00 | 0.00 | 0.00 | 94 | 1011.8 |
| 20260508072516 | 2 | 240 | 0.0 | 0.0 | 0.00 | 0.00 | 0.00 | 94 | 1012.1 |
| 20260508072014 | 2 | 255 | 1.6 | 1.6 | 0.00 | 0.00 | 0.00 | 94 | 1012.1 |
| 20260508071512 | 2 | 248 | 0.0 | 0.0 | 0.00 | 0.00 | 0.00 | 94 | 1011.8 |
| 20260508071009 | 2 | 240 | 0.0 | 0.0 | 0.00 | 0.00 | 0.00 | 93 | 1011.8 |
| 20260508070506 | 2 | 260 | 1.6 | 1.6 | 0.00 | 0.00 | 0.00 | 93 | 1011.8 |
| 20260508070005 | 2 | 245 | 0.0 | 0.0 | 0.00 | 0.00 | 0.00 | 93 | 1012.1 |
| 20260508065502 | 2 | 239 | 0.0 | 0.0 | 0.00 | 0.00 | 0.00 | 92 | 1011.8 |
| 20260508065000 | 2 | 239 | 0.0 | 0.0 | 0.00 | 0.00 | 0.00 | 92 | 1012.1 |
| 20260508064457 | 2 | 264 | 0.0 | 1.6 | 0.00 | 0.00 | 0.00 | 92 | 1011.8 |
| 20260508063955 | 2 | 259 | 1.6 | 1.6 | 0.00 | 0.00 | 0.00 | 91 | 1012.1 |
| 20260508063452 | 2 | 241 | 0.0 | 0.0 | 0.00 | 0.00 | 0.00 | 90 | 1012.1 |
| 20260508062950 | 3 | 239 | 0.0 | 0.0 | 0.00 | 0.00 | 0.00 | 89 | 1012.1 |
| 20260508062447 | 3 | 237 | 0.0 | 0.0 | 0.00 | 0.00 | 0.00 | 89 | 1011.8 |
| 20260508061944 | 3 | 247 | 0.0 | 0.0 | 0.00 | 0.00 | 0.00 | 88 | 1012.1 |
| 20260508061442 | 3 | 240 | 0.0 | 0.0 | 0.00 | 0.00 | 0.00 | 88 | 1011.8 |
| 20260508060938 | 3 | 242 | 0.0 | 0.0 | 0.00 | 0.00 | 0.00 | 88 | 1012.1 |
| 20260508060435 | 3 | 237 | 0.0 | 0.0 | 0.00 | 0.00 | 0.00 | 88 | 1012.1 |
| 20260508055931 | 3 | 233 | 1.6 | 1.6 | 0.00 | 0.00 | 0.00 | 87 | 1011.8 |
| 20260508055428 | 3 | 242 | 0.0 | 0.0 | 0.00 | 0.00 | 0.00 | 87 | 1012.1 |